368  
ASUS44 KBMX 251110  
RWRAL  
 
ALABAMA REGIONAL WEATHER ROUNDUP  
NATIONAL WEATHER SERVICE BIRMINGHAM AL  
600 AM CDT SAT MAR 25 2017  
 
NOTE: "FAIR" INDICATES FEW OR NO CLOUDS BELOW 12,000 FEET  
WITH NO SIGNIFICANT WEATHER AND/OR S TO VISIBILITY
.  
 
THE REMARK "TC" DENOTES TEMPERATURE IN DEGREES CELSIUS.  
 
ALZ001>011-014-016>018-020-251200-  
NORTH ALABAMA  
 
CITY SKY/WX TMP DP RH WIND PRES REMARKS
 
MUSCLE SHOALS CLOUDY 65 51 60 S9 30.09R  
HUNTSVILLE CLOUDY 63 54 72 SE12 30.14R  
DECATUR CLOUDY 62 54 74 SE8 30.13S  
HALEYVILLE FAIR 61 53 75 SE12G18 30.12F  
GADSDEN PTCLDY 62 50 64 CALM 30.20R  

 
 
ALZ012-013-022-023-030>036-040>044-251200-  
WEST CENTRAL ALABAMA  
 
CITY SKY/WX TMP DP RH WIND PRES REMARKS
 
TUSCALOOSA CLOUDY 62 52 69 SE9 30.14R  

 
 
ALZ015-024>027-033>036-040>044-251200-  
CENTRAL ALABAMA  
 
CITY SKY/WX TMP DP RH WIND PRES REMARKS
 
BIRMINGHAM PTCLDY 63 52 67 SE9 30.19R  
MONTGOMERY CLEAR 57 51 80 E9 30.20S  
SHELBY CO ARPT CLOUDY 60 54 80 SE5 30.18R  
MAXWELL AFB PTCLDY 60 55 81 E12 30.18F  
GREENVILLE FAIR 57 51 80 SE3 30.18S  

 
 
ALZ019-021-028-029-037-038-045>048-251200-  
EAST CENTRAL ALABAMA  
 
CITY SKY/WX TMP DP RH WIND PRES REMARKS
 
ANNISTON CLOUDY 62 51 67 SE6 30.21F  
ALEXANDER CITY CLOUDY 60 51 73 SE5 30.23R  
AUBURN CLOUDY 59 52 77 SE3 30.25R  

 
 
ALZ051>064-251200-  
SOUTHWEST ALABAMA  
 
CITY SKY/WX TMP DP RH WIND PRES REMARKS
 
MOBILE CLOUDY 66 62 87 SE8 30.14S  
BROOKLEY FIELD CLOUDY 69 64 84 SE9 30.16R  
EVERGREEN PTCLDY 53 51 93 CALM 30.17S  

 
 
ALZ049-050-065>069-251200-  
SOUTHEAST ALABAMA  
 
CITY SKY/WX TMP DP RH WIND PRES REMARKS
 
DOTHAN MOCLDY 59 55 87 E6 30.24R  
OZARK CLEAR 59 54 82 E3 30.21R  
TROY CLEAR 58 54 86 CALM 30.22R  
EUFAULA FAIR 59 52 77 SE3 30.23R  

 
 
 
CLICK HERE TO GO TO PREVIOUS BULLETINS.

The Nexlab AL Page Main Text Page